www.pogodaiklimat.ru

Погода и климат >> Архив погоды >> Индонезия >> Ларантука


ПОГОДА в Ларантуке

  • Прогноз погоды в Ларантуке
  • Монитор погоды в Ларантуке

АРХИВ ПОГОДЫ в Ларантуке

Время (UTC), дата Ветер
(напр.,м/с)
 
Видим.   Явления Облачность Т
(С)
Тd
(С)
f
(%)
Тe
(С)
Тes
(С)
Комфортность P
(гПа)
Po
(гПа)
Тmin
(С)
Tmax
(С)
R
(мм)
R24
(мм)
S
(см)
09 12.08 С 3 15 км 1/1 600 м
[Cu hum Ci fib]
+28.4 +21.8 67 +36 +37 очень
душно
1012.1 1010.9
12 12.08 штиль 0 8000 м 1/1 600 м
[Cu hum Ci fib]
+26.2 +21.3 74 +33 +33 очень
душно
1014.4 1013.2 +32.2
15 12.08 штиль 0 8000 м 1/1 600 м
[Cu hum Ci fib]
+23.8 +21.6 87 +30 +30 очень
душно
1014.3 1013.1
18 12.08 штиль 0 8000 м 1/1 600 м
[Cu hum Ci fib]
+23.0 +20.1 84 +30 +30 очень
душно
1013.1 1011.9
21 12.08 штиль 0 8000 м 1/1 600 м
[Cu hum Ci fib]
+22.6 +20.0 85 +29 +29 очень
душно
1013.2 1012.0
00 13.08 штиль 0 15 км 3/3 600 м
[Cu hum Ci fib]
+26.8 +22.3 76 +35 +40 очень
душно
1014.6 1013.4 +22.4
03 13.08 С 3 15 км 3/3 600 м
[Cu hum Ci fib]
+29.4 +21.6 63 +37 +48 очень
душно
1014.2 1013.0
06 13.08 СВ 4 15 км 1/1 600 м
[Cu hum Ci fib]
+30.1 +19.6 53 +36 +45 очень
душно
1012.2 1011.0
09 13.08 СВ 2 15 км 1/1 600 м
[Cu hum Ci fib]
+28.5 +18.9 56 +34 +34 очень
душно
1012.7 1011.5
12 13.08 штиль 0 8000 м 4/4 600 м
[Cu hum Ci fib]
+25.6 +19.8 70 +31 +31 очень
душно
1014.9 1013.7 +30.6
15 13.08 штиль 0 8000 м 6/4 600 м
[Cu med, cong As op Ci fib]
+24.2 +19.8 76 +29 +29 душно 1015.4 1014.2
18 13.08 штиль 0 8000 м 1/1 600 м
[Cu hum Ci fib]
+22.8 +20.2 85 +29 +29 очень
душно
1014.2 1013.0
21 13.08 штиль 0 8000 м 1/1 600 м
[Cu hum Ci fib]
+20.8 +19.1 90 +25 +25 комфорт 1014.6 1013.4
00 14.08 Ю 2 15 км 1/1 600 м
[Cu hum Ci fib]
+25.9 +19.8 69 +32 +36 очень
душно
1016.4 1015.2 +20.6
03 14.08 СВ 3 15 км 1/1 600 м
[Cu hum Ci fib]
+29.4 +20.6 59 +36 +51 опасность
солнечного
удара
1015.4 1014.2
06 14.08 С 3 15 км 1/1 600 м
[Cu hum Ci fib]
+29.6 +21.2 61 +37 +48 очень
душно
1012.9 1011.7
09 14.08 СВ 3 15 км 1/1 600 м
[Cu hum Ci fib]
+27.7 +21.5 69 +35 +36 очень
душно
1012.6 1011.4
12 14.08 штиль 0 8000 м 8/6 600 м
[Cu med, cong Ac trans Ci fib]
+25.6 +21.6 79 +33 +33 очень
душно
1014.5 1013.3 +30.0
15 14.08 штиль 0 8000 м 1/1 600 м
[Cu hum Ci fib]
+23.1 +16.1 65 +28 +28 душно 1015.2 1014.1
18 14.08 штиль 0 8000 м 1/1 600 м
[Cu hum Ci fib]
+22.0 +16.0 69 +26 +26 душно 1014.6 1013.4
21 14.08 штиль 0 8000 м 1/1 600 м
[Cu hum Ci fib]
+19.8 +17.1 84 +22 +22 комфорт 1015.0 1013.9
00 15.08 СВ 2 15 км 1/1 600 м
[Cu hum Ci fib]
+25.6 +19.0 67 +31 +36 очень
душно
1016.9 1015.7 +19.6
03 15.08 СВ 3 15 км 1/1 600 м
[Cu hum Ci fib]
+28.6 +19.7 59 +35 +48 очень
душно
1016.2 1015.0
06 15.08 С 3 15 км 3/1 600 м
[Cu hum Ac trans Ci fib]
+29.3 +19.8 57 +36 +45 очень
душно
1013.6 1012.4
09 15.08 СЗ 2 15 км 1/1 600 м
[Cu hum Ci fib]
+28.5 +21.1 64 +36 +36 очень
душно
1012.8 1011.6
12 15.08 штиль 0 8000 м 1/1 600 м
[Cu hum Ci fib]
+24.4 +19.0 72 +29 +29 душно 1014.4 1013.2 +29.6
15 15.08 штиль 0 8000 м 1/1 600 м
[Cu hum Ci fib]
+21.7 +16.9 74 +26 +26 душно 1015.0 1013.9
18 15.08 штиль 0 8000 м 1/1 600 м
[Cu hum Ci fib]
+20.3 +16.8 80 +23 +23 комфорт 1013.9 1012.7
21 15.08 штиль 0 8000 м 1/1 600 м
[Cu hum Ci fib]
+19.7 +16.5 82 +22 +22 комфорт 1013.7 1012.5
00 16.08 штиль 0 15 км 4/1 600 м
[Cu hum Ci fib]
+25.0 +19.7 72 +30 +36 душно 1015.4 1014.3 +19.2
03 16.08 С 4 15 км 3/3 600 м
[Cu hum Ci fib]
+28.6 +20.0 60 +35 +44 очень
душно
1014.9 1013.7
06 16.08 СВ 3 15 км 3/3 600 м
[Cu hum Ci fib]
+30.0 +20.7 57 +37 +45 очень
душно
1013.1 1011.9
09 16.08 СЗ 3 15 км 1/1 600 м
[Cu hum Ci fib]
+28.8 +20.6 61 +36 +36 очень
душно
1012.2 1011.0
12 16.08 штиль 0 8000 м 1/1 600 м
[Cu hum Ci fib]
+24.7 +20.3 77 +31 +31 очень
душно
1013.7 1012.5 +30.4
15 16.08 СЗ 3 8000 м 1/1 600 м
[Cu hum Ci fib]
+23.6 +20.3 82 +29 +29 душно 1014.5 1013.3
18 16.08 З 2 8000 м 1/1 600 м
[Cu hum Ci fib]
+23.0 +19.2 79 +29 +29 очень
душно
1013.6 1012.5
21 16.08 СЗ 2 8000 м 1/1 600 м
[Cu hum Ci fib]
+23.4 +19.1 77 +30 +30 очень
душно
1013.9 1012.7
00 17.08 З 2 15 км 1/1 600 м
[Cu hum Ci fib]
+27.2 +20.5 67 +34 +39 очень
душно
1015.6 1014.4 +20.8
03 17.08 СВ 4 15 км 3/3 600 м
[Cu hum Ci fib]
+31.8 +17.4 42 +36 +45 очень
душно
1015.0 1013.8
06 17.08 С 3 15 км 3/3 600 м
[Cu hum Ci fib]
+30.2 +19.5 53 +36 +44 очень
душно
1012.7 1011.5
09 17.08 штиль 0 15 км 1/1 600 м
[Cu hum Ci fib]
+29.4 +21.0 61 +37 +38 очень
душно
1012.8 1011.6
12 17.08 Ю 4 8000 м 1/1 600 м
[Cu hum Ci fib]
+25.7 +20.6 73 +32 +32 очень
душно
1014.5 1013.3 +32.0
15 17.08 Ю 4 8000 м 1/1 600 м
[Cu hum Ci fib]
+25.2 +19.7 72 +31 +31 очень
душно
1014.7 1013.5
18 17.08 Ю 5 8000 м 3/1 600 м
[Cu hum Ac trans Ci fib]
+25.4 +19.6 70 +31 +31 очень
душно
1013.3 1012.1
21 17.08 Ю 4 8000 м 3/1 600 м
[Cu hum Ac trans Ci fib]
+24.7 +20.3 77 +31 +31 очень
душно
1013.0 1011.8
00 18.08 Ю 5 15 км 3/1 600 м
[Cu hum Ac trans Ci fib]
+27.6 +21.1 68 +35 +37 очень
душно
1014.3 1013.1 +24.5
03 18.08 Ю 5 15 км 3/3 600 м
[Cu hum Ci fib]
+31.5 +19.5 49 +37 +45 очень
душно
1013.7 1012.5
06 18.08 Ю 3 15 км 5/5 600 м
[Cu hum Ci fib]
+31.4 +20.6 53 +38 +45 очень
душно
1011.5 1010.3
09 18.08 штиль 0 15 км 1/1 600 м
[Cu hum Ci fib]
+29.6 +20.5 58 +36 +37 очень
душно
1011.1 1009.9
12 18.08 Ю 3 8000 м 1/1 600 м
[Cu hum Ci fib]
+26.0 +20.5 72 +32 +32 очень
душно
1013.7 1012.5 +32.6
15 18.08 Ю 3 8000 м 3/3 600 м
[Cu hum Ci fib]
+25.6 +20.0 71 +31 +31 очень
душно
1014.1 1012.9
18 18.08 Ю 6 8000 м 1/1 600 м
[Cu hum Ci fib]
+25.5 +19.4 69 +31 +31 очень
душно
1012.7 1011.5
21 18.08 Ю 4 8000 м 1/1 600 м
[Cu hum Ci fib]
+25.4 +19.5 70 +31 +31 очень
душно
1012.6 1011.4
00 19.08 Ю 4 15 км 1/1 600 м
[Cu hum Ci fib]
+28.2 +20.3 62 +35 +38 очень
душно
1014.0 1012.8 +25.4
03 19.08 ЮВ 5 13 км 8/3 600 м
[Cu hum Ac trans Ci fib]
+29.6 +20.9 60 +37 +42 очень
душно
1013.8 1012.6
06 19.08 Ю 4 15 км 3/3 600 м
[Cu hum Ci fib]
+33.4 +20.1 46 +40 +46 очень
душно
1010.5 1009.3

 

Местоположение метеостанции Ларантука (Индонезия): широта -8.27 долгота 122.97 высота над уровнем моря 9 м.

В архиве по умолчанию представлена погода в Ларантуке за последнюю неделю. Архивные данные за месяц целиком и за предыдущие месяцы, начиная с января 2011 года, Вы можете получить, выбрав интересующий диапазон дат из раскрывающегося списка и нажав кнопку "Ввод!".


*Определитесь, кто Вы:
робот инопланетянин человек

Внимание! Время в таблицах - всемирное. Для получения местного времени необходимо прибавить поправку, которая равна 8 ч.

Смотрите также архив погоды в соседних городах и на ближайших метеорологических станциях:

Погода в Маумере (Индонезия) (89 км)
Погода на Алоре (Индонезия) (175 км)
Погода в Купанге (Индонезия) (223 км)
Погода на Роти (Индонезия) (274 км)
Погода в Сабу (Индонезия) (278 км)
Погода в Рутенге (Индонезия) (280 км)
Погода в Бау-Бау (Индонезия) (314 км)
Погода в Аэропорту Умбу Механг Кунда (Индонезия) (329 км)
Погода в Кендари (Индонезия) (468 км)
Погода в Колаке (Индонезия) (469 км)

Пояснения к столбцам:

Ветер - указаны скорость ветра в м/с - средняя за 10 мин, порывы в срок и между сроками (в фигурных скобках) и направление, откуда дует ветер: С - северный, СВ - северо-восточный, В - восточный, ЮВ - юго-восточный, Ю - южный, ЮЗ - юго-западный, З - западный, СЗ - северо-западный.
Видимость - горизонтальная дальность видимости в метрах или километрах. При видимости от 1 до 10 км при отсутствии осадков обычно наблюдается дымка, при ухудшении видимости до 1 км и менее - туман. В сухую погоду видимость может ухудшаться дымом, пылью или мглою.
Явления - указаны атмосферные явления, наблюдавшиеся в срок или в последний час перед сроком; фигурными скобками обозначены явления, наблюдавшиеся между сроками (за 1-3 часа до срока); квадратными скобками обозначены град или гололедные отложения с указанием их диаметра в мм.
Облачность - указаны через наклонную черту общая и нижняя облачность в баллах и высота нижней границы облаков в метрах; квадратными скобками обозначены формы облаков: Ci - перистые, Cs - перисто-слоистые, Cc - перисто-кучевые, Ac - высококучевые, As - высокослоистые, Sc - слоисто-кучевые, Ns - слоисто-дождевые, Cu - кучевые, Cb - кучево-дождевые. Подробнее классификацию облаков см. в Атласе облаков (PDF).
T - Температура воздуха - температура, измеренная на высоте 2 м над землей.
Td - Температура точки росы - температура, при понижении до которой содержащийся в воздухе водяной пар достигнет насыщения.
f - Относительная влажность воздуха - влажноcть воздуха, измеренная на высоте 2 м над землей.
Te - Эффективная температура - температура, которую ощущает одетый по сезону человек в тени. Характеристика душности погоды. При расчете учитывается влияние влажности воздуха и скорости ветра на теплоощущения человека.
Tes - Эффективная температура на солнце - температура, которую ощущает человек, с поправкой на солнечный нагрев. Характеристика знойности погоды. Зависит от высоты солнца над горизонтом, облачности и скорости ветра. Ночью, в пасмурную погоду, а также при ветре 12 м/с и более поправка равна нулю.
P - Атмосферное давление - приведенное к уровню моря атмосферное давление.
Po - Атмосферное давление - измеренное на уровне метеостанции атмосферное давление.
Tmin - Минимальная температура - минимум температуры воздуха на высоте 2 м над землей.
Tmax - Максимальная температура - максимум температуры воздуха на высоте 2 м над землей.
R - Количество осадков - Количество выпавших осадков за период времени, мм. При наведении курсора мыши на число - период времени, за который выпало указанное количество осадков.
R24 - Количество осадков - Количество выпавших осадков за 24 часа, мм.
S - Снежный покров - Высота снежного покрова, см. При наведении курсора мыши на число - состояние снежного покрова и степень покрытия местности в баллах.